Location: Les Jeannots
(43.2262°N, 5.5774°E)
Time: 07:21:01
(UTC+00:00)

Cosmos 923 Rocket - Pass Details

Date: 05 July 2020
Orbit: 757 x 786 km, 74.0° (Epoch: 04 August)

Event Time Altitude Azimuth Distance (km) Brightness Sun altitude
Exits shadow 21:52:19 36° 176° (S) 1,205 4.5 -19.4°
Maximum altitude 21:54:24 66° 107° (ESE) 839 4.0 -19.6°
Drops below altitude 10° 21:59:39 10° 26° (NNE) 2,329 7.0 -20.0°
Sets 22:02:03 0° 23° (NNE) 3,265 7.9 -20.2°
